Retour au catalogue

STARLINK-37147

ActifCommunicationsSSO
NORAD 68295·PAYLOAD·🇺🇸 United States

Lancé Mar 20, 2026 depuis Vandenberg Space Force Base

Loading…

Prochains Passages (prochaines 24 heures)

TLE

FraisSource: CelesTrak SupGP

Époque: Sep 14, 2026, 22:44 UTC

1 68295C 26057B   26257.94770833 -.00032482  00000+0 -10079-2 0  2579
2 68295  97.2858  23.4422 0000983 101.6854 268.1045 15.33468924    15

Suivez STARLINK-37147 en temps réel avec AllMySat

Download on the App Store